Location: Newark
(41.9000°N, 12.4833°E)
Time: 04:10:59
(UTC+00:00)

EO-79 - Pass Details

Date: 23 May 2019
Orbit: 592 x 610 km, 97.9° (Epoch: 25 June)

Event Time Altitude Azimuth Distance (km) Brightness Sun altitude
Rises 00:59:58 0° 352° (N) 2,843 ? -22.3°
Reaches altitude 10° 01:03:06 10° 327° (NNW) 1,933 ? -22.1°
Maximum altitude 01:05:11 14° 297° (WNW) 1,700 ? -21.9°
Enters shadow 01:05:37 13° 290° (WNW) 1,710 ? -21.8°
